Weather History for K8D3 - April, 2014

Change the Weather History Date:

Wednesday, April 2, 2014

  Actual Average Record
Temperature  
Mean Temperature 20 °F 38 °F  
Max Temperature 34 °F 49 °F 73 °F (1991)
Min Temperature 5 °F 27 °F 4 °F (1975)
Degree Days  
Heating Degree Days 45 27  
Month to date heating degree days 91 55  
Since 1 July heating degree days 8107 7397  
Cooling Degree Days 0 0  
Month to date cooling degree days 0 0  
Year to date cooling degree days 0 0  
Moisture  
Dew Point 18 °F    
Average Humidity 84    
Maximum Humidity 100    
Minimum Humidity 68    
Precipitation  
Precipitation 0.23 in 0.04 in 0.71 in (1905)
Month to date precipitation 0.31 0.06  
Year to date precipitation 1.77 2.04  
Snow  
Snow 0.00 in - - ()
Month to date snowfall 4.0  
Since 1 July snowfall 35.4  
Snow Depth 9.00 in    
Sea Level Pressure  
Sea Level Pressure 30.22 in    
Wind  
Wind Speed 5 mph (East)    
Max Wind Speed 13 mph    
Max Gust Speed 16 mph    
T = Trace of Precipitation, MM = Missing Value Source: NWS Daily Summary

Daily Weather History Graph

Daily Weather History Graph

Search for Another Location

Airport or City:

Trip Planner

Search our weather history database for the weather conditions in past years. The results will help you decide how hot, cold, wet, or windy it might be!

Date:

Astronomy

Apr. 02, 2014 Rise Set
Actual Time 7:06 AM CDT 7:57 PM CDT
Civil Twilight 6:36 AM CDT 8:27 PM CDT
Nautical Twilight 6:00 AM CDT 9:03 PM CDT
Astronomical Twilight 5:22 AM CDT 9:41 PM CDT
Moon 8:43 AM CDT (4/2) 11:31 PM CDT (4/2)
Length of Visible Light 13h 51m
Length of Day
12h 51m
Waxing Crescent, 10% of the Moon is Illuminated
Apr 2
Waxing Crescent
Apr 7
First Quarter
Apr 15
Full
Apr 22
Last Quarter
Apr 29
New

Hourly Weather History & Observations

Time (CDT) Temp. Windchill Dew Point Humidity Pressure Visibility Wind Dir Wind Speed Gust Speed Precip Events Conditions
12:56 AM 10.0 °F 1.8 °F 7.0 °F 87% 30.26 in - NNW 4.6 mph - 0.01 in   Unknown
1:56 AM 10.0 °F 3.6 °F 7.0 °F 87% 30.27 in - WNW 3.5 mph - 0.01 in   Unknown
2:56 AM 10.0 °F - 6.1 °F 84% 30.27 in - Calm Calm - 0.01 in   Unknown
3:56 AM 7.0 °F 0.1 °F 5.0 °F 92% 30.26 in - NNW 3.5 mph - N/A   Unknown
4:56 AM 8.1 °F 1.4 °F 5.0 °F 87% 30.26 in - North 3.5 mph - 0.01 in   Unknown
5:56 AM 7.0 °F - 3.9 °F 87% 30.27 in - Calm Calm - 0.01 in   Unknown
7:56 AM 7.0 °F -1.7 °F 5.0 °F 92% 30.27 in - NNW 4.6 mph - 0.02 in   Unknown
8:56 AM 15.1 °F - 12.0 °F 88% 30.27 in - Calm Calm - 0.06 in   Unknown
9:56 AM 19.0 °F 11.1 °F 14.0 °F 81% 30.26 in - North 5.8 mph - 0.02 in   Unknown
10:56 AM 21.9 °F 15.7 °F 15.1 °F 75% 30.27 in - East 4.6 mph - N/A   Unknown
11:56 AM 25.0 °F 16.3 °F 16.0 °F 69% 30.25 in - East 8.1 mph - N/A   Unknown
12:56 PM 26.1 °F 20.5 °F 18.0 °F 71% 30.24 in - ESE 4.6 mph - N/A   Unknown
1:56 PM 28.9 °F 21.1 °F 21.0 °F 72% 30.22 in - ESE 8.1 mph - N/A   Unknown
2:56 PM 30.9 °F 24.3 °F 24.1 °F 76% 30.20 in - ESE 6.9 mph - N/A   Unknown
3:56 PM 33.1 °F 26.9 °F 26.1 °F 75% 30.18 in - SSE 6.9 mph - N/A   Unknown
4:56 PM 34.0 °F 26.0 °F 27.0 °F 75% 30.17 in - SE 10.4 mph - N/A   Unknown
5:56 PM 34.0 °F 28.0 °F 28.0 °F 79% 30.16 in - ESE 6.9 mph - N/A   Unknown
6:56 PM 34.0 °F 31.0 °F 28.0 °F 79% 30.14 in - ENE 3.5 mph - N/A   Unknown
7:56 PM 32.0 °F 23.0 °F 30.9 °F 96% 30.15 in - East 11.5 mph - 0.01 in   Unknown
8:56 PM 30.0 °F 22.4 °F 30.0 °F 100% 30.16 in - ESE 8.1 mph - 0.06 in   Unknown
9:56 PM 30.0 °F 21.7 °F 28.9 °F 96% 30.16 in - ESE 9.2 mph - 0.01 in   Unknown
10:56 PM 30.0 °F 22.4 °F 28.0 °F 92% 30.15 in - East 8.1 mph - N/A   Unknown
11:56 PM 28.9 °F 21.1 °F 28.9 °F 100% 30.12 in - East 8.1 mph - N/A   Unknown